Location: Lombard
(41.8800°N, 88.0080°W)
Time: 23:10:31
(UTC-05:00)

Tiros 1 - Visible Passes

Search period start: 30 May 2023 00:00
Search period end: 09 June 2023 00:00
Orbit: 627 x 660 km, 48.4° (Epoch: 30 May)

Date Brightness Start Highest point End Pass type
(mag) Time Alt. Az. Time Alt. Az. Time Alt. Az.
30 May 8.0 04:22:26 11° SSW 04:26:41 39° SE 04:31:04 10° ENE visible
31 May 9.0 03:08:42 15° SSE 03:10:00 17° SE 03:13:03 10° E visible
31 May 7.2 04:46:50 10° SW 04:51:35 77° SSE 04:56:18 10° ENE visible
01 Jun 8.1 03:32:29 23° S 03:34:40 36° SE 03:38:59 10° ENE visible
02 Jun 9.2 02:18:37 15° ESE 02:18:37 15° ESE 02:20:44 10° E visible
02 Jun 7.2 03:56:12 19° SW 03:59:33 71° SSE 04:04:15 10° ENE visible
03 Jun 8.1 02:42:17 32° SSE 02:42:39 32° SE 02:46:52 10° ENE visible
03 Jun 7.4 04:19:51 10° WSW 04:24:35 68° NNW 04:29:18 10° ENE visible
04 Jun 9.7 01:28:19 10° ESE 01:28:19 10° ESE 01:28:20 10° ESE visible
04 Jun 7.2 03:05:53 39° SSW 03:07:30 64° SSE 03:12:11 10° ENE visible
05 Jun 8.6 01:51:51 26° ESE 01:51:51 26° ESE 01:54:44 10° ENE visible
05 Jun 7.3 03:29:25 22° WSW 03:32:31 73° NNW 03:37:16 10° ENE visible
06 Jun 7.2 02:15:21 58° SSE 02:15:27 58° SE 02:20:08 10° ENE visible
06 Jun 8.0 03:53:06 10° W 03:57:43 48° NNW 04:02:18 10° ENE visible
07 Jun 9.2 01:01:13 17° E 01:01:13 17° E 01:02:35 10° E visible
07 Jun 7.2 02:38:47 40° WSW 02:40:27 78° NNW 02:45:13 10° ENE visible
07 Jun 8.4 04:18:34 10° WNW 04:23:02 38° N 04:27:28 10° ENE visible
08 Jun 7.9 01:24:34 42° E 01:24:34 42° E 01:28:02 10° ENE visible
08 Jun 7.9 03:02:07 17° W 03:05:37 51° NNW 03:10:15 10° ENE visible
